STARLINK-30387, 57788

Orbit data source: Space-Track

STARLINK-30387, 57788 is a payload satellite owned by SpaceX/Seattle (US) in LEO that was launched on Mon, 04 Sep 2023 UTC via an FALCON 9 launch vehicle from the Air Force Eastern Test Range (AFETR). Payload-class satellites include a variety of spacecraft equipped with specific instruments for various scientific and technological missions. These include communications satellites like Starlink; space stations such as the ISS; scientific satellites like the Hubble; Earth observation satellites from companies like Planet Labs, Umbra, and HawkEye 360; GPS; miniature CubeSats for education and research; and military/defense satellites.

Loading next visibility...
Identifier
57788, 2023-134T
Orbit
LEO
Country
Flag of USUS
Related business
Manufacturer
SpaceX/Seattle
Mission
Operational Commercial Communications
Bus & Motor
STARLINK V2M, Unknown motor
Mass
730 kg wet, ~700 kg dry
Launch date (UTC)
2023-09-04 (2 years ago)
Launch vehicle
FALCON 9
Launch site
Air Force Eastern Test Range (AFETR)
Object type
Payload
Rocket body
Debris
Shape & HBR
Box + 2 Pan, 17.7 m
Radar Cross Section
33.884 m², Large (>1 m²)

Expand to show TLE details & history
Last TLE update: 13 hours ago

TLE from 13 hours ago
0 STARLINK-30387
1 57788U 23134T   25346.91157047 -.00000099  00000-0  77119-5 0  9991
2 57788  43.0025 295.7075 0001389 273.3469  86.7215 15.02526863126579
Epoch: 2025-12-12T21:52Z
TLE epoch observation values (Epoch: 2025-12-12T21:52:39.688Z)
Latitude
0.00002°
Longitude
-114.30425°
Altitude
558.831 km
Speed
7.584 km/s
True Right ascension
19h 42m 49s
True Declination
0° 00' 00"
Sunlit
Object was in daylight at epoch
Visualization orbit readout
Latitude
Unknown
Longitude
Unknown
Altitude
Unknown
Speed
Unknown
Apparent Right ascension
Unknown
Apparent Declination
Unknown
Sunlit
N/A
Visualization observer readout
Local Sidereal Time
09:19:34
Azimuth
Unknown
Elevation
Unknown
Doppler factor
Unknown
Orbital elements
Apogee altitude
561.995 km
Perigee altitude
560.067 km
Semi-major axis
6,939.168 km
Eccentricity
0.00014
Inclination
43.0025°
RAAN
295.7075°
Arg. of periapsis
273.3469°
True anomaly
86.73739°
Mean anomaly
86.7215°
Eccentric anomaly
86.72945°
Mean motion
3.75476 °/min
Orbital period
95.88 mins
BSTAR
0.0000077119
Loading maneuver chart data...
Computing Atmospheric mass density...
Loading historical data...
Loading historical data...
Loading historical data...
Loading historical data...
Loading historical data...
Loading historical data...
Loading historical data...

Documentation

Showing up to 5 results
|